Weather History for KEKQ - May, 2013

Change the Weather History Date:

Saturday, May 18, 2013

  Actual Average Record
Temperature  
Mean Temperature 68 °F -  
Max Temperature 73 °F 77 °F 92 °F (1962)
Min Temperature 63 °F 53 °F 36 °F (1973)
Cooling Degree Days 4    
Growing Degree Days 18 (Base 50)    
Moisture  
Dew Point 67 °F    
Average Humidity 97    
Maximum Humidity 100    
Minimum Humidity 83    
Precipitation  
Precipitation 0.30 in - - ()
Sea Level Pressure  
Sea Level Pressure 30.04 in    
Wind  
Wind Speed 3 mph (SSE)    
Max Wind Speed 9 mph    
Max Gust Speed -    
Visibility 7 miles    
Events Fog , Rain    
Averages and records for this station are not official NWS values.
T = Trace of Precipitation, MM = Missing Value Source: NWS Daily Summary

Daily Weather History Graph

Daily Weather History Graph

Search for Another Location

Airport or City:

Trip Planner

Search our weather history database for the weather conditions in past years. The results will help you decide how hot, cold, wet, or windy it might be!

Date:

Astronomy

May. 18, 2013 Rise Set
Actual Time 5:29 AM CDT 7:42 PM CDT
Civil Twilight 5:00 AM CDT 8:12 PM CDT
Nautical Twilight 4:24 AM CDT 8:48 PM CDT
Astronomical Twilight 3:45 AM CDT 9:27 PM CDT
Moon 12:55 PM CDT (5/18) 1:10 AM CDT (5/18)
Length of Visible Light 15h 12m
Length of Day
14h 13m
First Quarter, 55% of the Moon is Illuminated
May 18
First Quarter
May 24
Full
May 31
Last Quarter
Jun 8
New
Jun 16
First Quarter

Hourly Weather History & Observations

Time (CDT) Temp. Dew Point Humidity Pressure Visibility Wind Dir Wind Speed Gust Speed Precip Events Conditions
12:56 AM 65.8 °F 65.8 °F 100% 30.06 in 6.0 mi Calm Calm - N/A   Overcast
1:56 AM 65.8 °F 65.8 °F 100% 30.04 in 4.0 mi Calm Calm - N/A   Overcast
2:56 AM 65.8 °F 65.8 °F 100% 30.05 in 10.0 mi Calm Calm - N/A   Overcast
3:56 AM 64.9 °F 64.9 °F 100% 30.03 in 10.0 mi Calm Calm - N/A   Overcast
4:56 AM 65.8 °F 63.9 °F 93% 30.04 in 10.0 mi Calm Calm - N/A   Overcast
5:37 AM 64.4 °F 64.4 °F 100% 30.04 in 8.0 mi Calm Calm - N/A   Overcast
5:56 AM 64.9 °F 64.9 °F 100% 30.05 in 10.0 mi Calm Calm - N/A   Mostly Cloudy
6:18 AM 64.4 °F 64.4 °F 100% 30.05 in 10.0 mi Calm Calm - N/A   Overcast
6:56 AM 64.9 °F 64.9 °F 100% 30.06 in 10.0 mi South 4.6 mph - N/A   Overcast
7:14 AM 64.4 °F 64.4 °F 100% 30.06 in 2.0 mi SSE 5.8 mph - 0.00 in Rain Light Rain
7:24 AM 64.4 °F 64.4 °F 100% 30.06 in 2.0 mi SSE 3.5 mph - 0.00 in Rain Light Rain
7:48 AM 64.4 °F 64.4 °F 100% 30.06 in 7.0 mi Calm Calm - 0.00 in Rain Light Rain
7:56 AM 64.9 °F 64.9 °F 100% 30.07 in 9.0 mi SSE 4.6 mph - 0.00 in   Mostly Cloudy
8:56 AM 66.9 °F 66.9 °F 100% 30.07 in 10.0 mi South 6.9 mph - N/A   Mostly Cloudy
9:10 AM 66.2 °F 66.2 °F 100% 30.07 in 10.0 mi SSE 4.6 mph - N/A   Overcast
9:46 AM 66.2 °F 66.2 °F 100% 30.07 in 4.0 mi South 5.8 mph - N/A   Overcast
9:56 AM 66.9 °F 66.9 °F 100% 30.06 in 10.0 mi SSE 6.9 mph - N/A   Overcast
10:22 AM 69.8 °F 68.0 °F 94% 30.06 in 10.0 mi SSE 8.1 mph - N/A   Overcast
10:56 AM 70.0 °F 68.0 °F 93% 30.06 in 10.0 mi SSE 5.8 mph - N/A   Overcast
11:29 AM 71.6 °F 68.0 °F 88% 30.05 in 10.0 mi SE 8.1 mph - N/A   Overcast
11:56 AM 68.9 °F 68.0 °F 97% 30.06 in 10.0 mi SSE 6.9 mph - N/A   Overcast
12:48 PM 71.6 °F 68.0 °F 88% 30.05 in 10.0 mi SSE 4.6 mph - N/A   Mostly Cloudy
12:56 PM 72.9 °F 68.9 °F 87% 30.04 in 10.0 mi SSE 6.9 mph - N/A   Mostly Cloudy
1:22 PM 73.4 °F 68.0 °F 83% 30.04 in 10.0 mi South 3.5 mph - N/A   Mostly Cloudy
1:43 PM 71.6 °F 69.8 °F 94% 30.04 in 1.8 mi South 8.1 mph - 0.00 in Rain Light Rain
1:47 PM 71.6 °F 69.8 °F 94% 30.04 in 1.0 mi SE 6.9 mph - 0.01 in Rain Rain
1:56 PM 68.9 °F 68.9 °F 100% 30.04 in 0.5 mi South 9.2 mph - 0.06 in Fog , Rain Heavy Rain
2:04 PM 69.8 °F 69.8 °F 100% 30.04 in 0.2 mi ESE 3.5 mph - 0.12 in Fog , Rain Heavy Rain
2:11 PM 68.0 °F 68.0 °F 100% 30.04 in 0.2 mi Variable 3.5 mph - 0.22 in Fog , Rain Heavy Rain
2:19 PM 69.8 °F 69.8 °F 100% 30.03 in 0.8 mi Calm Calm - 0.24 in Rain Light Rain
2:22 PM 69.8 °F 69.8 °F 100% 30.03 in 1.5 mi West 4.6 mph - 0.24 in Rain Light Rain
2:25 PM 69.8 °F 69.8 °F 100% 30.03 in 9.0 mi WNW 3.5 mph - 0.24 in   Mostly Cloudy
2:40 PM 71.6 °F 69.8 °F 94% 30.03 in 10.0 mi South 4.6 mph - 0.24 in   Mostly Cloudy
2:56 PM 70.9 °F 70.9 °F 100% 30.03 in 8.0 mi Variable 3.5 mph - 0.24 in   Mostly Cloudy
3:02 PM 71.6 °F 71.6 °F 100% 30.03 in 2.5 mi SSE 5.8 mph - 0.00 in Rain Light Rain
3:18 PM 71.6 °F 71.6 °F 100% 30.02 in 8.0 mi SE 5.8 mph - 0.00 in   Mostly Cloudy
3:27 PM 71.6 °F 71.6 °F 100% 30.02 in 10.0 mi SSE 6.9 mph - 0.00 in   Mostly Cloudy
3:56 PM 72.9 °F 70.9 °F 93% 30.01 in 10.0 mi SSE 5.8 mph - 0.00 in   Scattered Clouds
4:56 PM 72.9 °F 70.9 °F 93% 30.01 in 10.0 mi SE 4.6 mph - N/A   Mostly Cloudy
5:56 PM 73.9 °F 70.9 °F 90% 30.01 in 10.0 mi Calm Calm - N/A   Partly Cloudy
6:56 PM 72.9 °F 68.9 °F 87% 30.01 in 10.0 mi SE 4.6 mph - N/A   Partly Cloudy
7:56 PM 68.9 °F 68.9 °F 100% 30.03 in 10.0 mi Calm Calm - N/A   Partly Cloudy
8:56 PM 66.9 °F 66.9 °F 100% 30.03 in 8.0 mi Calm Calm - N/A   Partly Cloudy
9:45 PM 66.2 °F 66.2 °F 100% 30.03 in 2.5 mi Calm Calm - N/A   Partly Cloudy
9:56 PM 65.8 °F 65.8 °F 100% 30.03 in 2.5 mi Calm Calm - N/A   Partly Cloudy
10:14 PM 64.4 °F 64.4 °F 100% 30.03 in 1.5 mi Calm Calm - N/A   Clear
10:23 PM 64.4 °F 64.4 °F 100% 30.03 in 1.2 mi Calm Calm - N/A   Mostly Cloudy
10:56 PM 65.8 °F 65.8 °F 100% 30.03 in 3.0 mi Calm Calm - N/A   Mostly Cloudy
11:34 PM 64.4 °F 64.4 °F 100% 30.03 in 2.0 mi Calm Calm - N/A   Partly Cloudy
11:56 PM 63.9 °F 63.9 °F 100% 30.03 in 2.0 mi Calm Calm - N/A   Partly Cloudy